Location: Hurstbourne Priors
(51.2000°N, 1.3667°W)
Time: 19:45:12
(UTC+00:00)

Transit 4A - Pass Details

Date: 25 April 2021
Orbit: 870 x 974 km, 66.8° (Epoch: 09 May)

Event Time Altitude Azimuth Distance (km) Brightness Sun altitude
Rises 20:32:49 0° 153° (SSE) 3,619 - -10.8°
Reaches altitude 10° 20:36:56 10° 127° (SE) 2,658 - -11.4°
Exits shadow 20:38:57 13° 107° (ESE) 2,454 9.5 -11.6°
Maximum altitude 20:39:31 13° 102° (ESE) 2,441 9.6 -11.7°
Drops below altitude 10° 20:42:06 10° 76° (ENE) 2,636 9.9 -12.0°
Sets 20:46:08 0° 50° (NE) 3,560 10.9 -12.5°
